Voltar ao catálogo

OPS 3367 B

AtivoMilitarSSO
NORAD 735·PAYLOAD·🇺🇸 United States

Lançado Jan 19, 1964 de Vandenberg Space Force Base

Loading…

Próximas Passagens (próximas 24 horas)

TLE

AtualizadoSource: Space-Track

Época: Sep 14, 2026, 13:29 UTC

1 00735U 64002C   26257.56212314  .00000052  00000-0  39498-4 0  9997
2 00735  98.9812 184.8922 0017309  50.0662 310.2036 14.28597822259477

Acompanhe OPS 3367 B em tempo real com AllMySat

Download on the App Store